C/2019 K5 ( Young )

Japanese version
Home page
Updated on December 24, 2019

---------------------------------------------------------------------

* Profile

Discovery Date May 25, 2019
Magnitude 17.1 mag
Discoverer David Young (Asteroid Terrestrial-Impact Last Alert System (ATLAS) search program)

* Pictures

* Orbital Elements

Epoch 2019 June 6.0 TT = JDT 2458640.5
T 2019 June 22.74519 TT                                 Williams
q   2.0350403            (2000.0)            P               Q
z  +0.0066364      Peri.  174.91365     +0.99066960     +0.13566842
 +/-0.0000019      Node   177.18872     -0.13249483     +0.98101701
e   0.9864946      Incl.   15.31569     -0.03191977     +0.13856297
From 458 observations 2018 June 17-2019 Nov. 30, mean residual 0".4.

* Finding Charts

* Magnitudes Graph

        m1 = 10.0 + 5 log d + 13.5 log r(t - 50)

---------------------------------------------------------------------

The orbital elements are published on M.P.E.C. 2019-X94.
The charts are made with StellaNavigator Ver.10 (AstroArts).
The magnitudes graphs are made with Comet for Windows.

---------------------------------------------------------------------

Copyright(C) Seiichi Yoshida (comet@aerith.net). All rights reserved.